Regional Weather Roundup
Issued by NWS

Home | Current Version | Previous Version | Graphics & Text | Print | Product List | Glossary Off
Versions: 1 2 3 4 5 6 7 8 9 10 11 12 13 14 15 16 17 18 19 20 21 22 23 24 25 26 27 28 29 30 31 32 33 34 35 36 37 38 39 40 41 42 43 44 45 46 47 48 49 50

000
ASUS43 KLSX 040307
RWRMO

WEATHER SUMMARY FOR MISSOURI
NATIONAL WEATHER SERVICE SPRINGFIELD MO
1000 PM CDT TUE MAY 03 2016

NOTE: "FAIR" INDICATES FEW OR NO CLOUDS BELOW 12,000 FEET WITH NO
       SIGNIFICANT WEATHER AND/OR OBSTRUCTIONS TO VISIBILITY.
       CURRENT SKY AND/OR WEATHER CONDITIONS ARE NOT AVAILABLE FOR
       CHILLICOTHE AND FARMINGTON.

MOZ001>031-035>038-043-044-053-054-040400-
...NORTHERN AND WESTERN MISSOURI...

CITY           SKY/WX    TMP DP  RH WIND       PRES   REMARKS
KANSAS CTY INT CLEAR     57  42  57 SW5       29.93F
KANSAS C DTWN  CLEAR     59  44  57 SW6       29.93S
LEE`S SUMMIT   CLEAR     60  44  55 SW6       29.94F
ST JOSEPH      CLEAR     57  45  64 W7        29.91F
CHILLICOTHE      N/A     55  45  68 SW3       29.90F
KIRKSVILLE     MOCLDY    57  41  55 SW6       29.87F

$$
MOZ066>068-077>081-088>096-101>105-040400-
...SOUTHWEST MISSOURI...

CITY           SKY/WX    TMP DP  RH WIND       PRES   REMARKS
SPRINGFIELD    CLEAR     50  42  74 SW7       29.98S
JOPLIN         CLEAR     53  46  77 S6        30.00R

$$
MOZ032>034-039>042-045>050-055>058-069>072-040400-
...CENTRAL MISSOURI...

CITY           SKY/WX    TMP DP  RH WIND       PRES   REMARKS
COLUMBIA       CLEAR     55  43  63 SW8       29.92F
JEFFERSON CITY PTCLDY    55  45  68 CALM      29.93S
ROLLA          CLEAR     47  40  76 SW7       29.93F
SEDALIA        CLEAR     58  43  57 SW7       29.95S
WHITEMAN AFB   PTCLDY    55  45  70 SW8       29.93S
WARRENSBURG    MOCLDY    55  43  62 SW5       29.94F
OSAGE BEACH    CLEAR     52  37  58 CALM      29.96S

$$
MOZ051-052-059>065-040400-
...EAST CENTRAL MISSOURI...

CITY           SKY/WX    TMP DP  RH WIND       PRES   REMARKS
ST LOUIS INTL  PTCLDY    58  43  57 SW7       29.92F
SPIRIT OF STL  PTCLDY    54  47  77 CALM      29.92S
ST CHARLES     MOCLDY    55  49  80 CALM      29.90F

$$
MOZ072>076-082>087-097>100-106>115-040400-
...SOUTH CENTRAL AND SOUTHEAST MISSOURI...

CITY           SKY/WX    TMP DP  RH WIND       PRES   REMARKS
CAPE GIRARDEAU CLEAR     52  49  89 SW5       29.96R
FARMINGTON     CLEAR     48  47  96 CALM      29.96S
POPLAR BLUFF   CLEAR     56  50  80 CALM      29.97R
WEST PLAINS    CLEAR     51  40  65 CALM      29.99R

$$



USA.gov is the U.S. government's official web portal to all federal, state and local government web resources and services.